Stations météo

Publicité
St-Girons, France (7627): Température de l'air & dewpoint: 11.06.2019 17:00:00 - 17.06.2019 17:00:00 (CEST)St-Girons, France (7627): Température de l'air 5cm: 11.06.2019 17:00:00 - 17.06.2019 17:00:00 (CEST)St-Girons, France (7627): Température de l'air -20cm & Température de l'air -100cm: 11.06.2019 17:00:00 - 17.06.2019 17:00:00 (CEST)St-Girons, France (7627): Vitesse du vent & gusts: 11.06.2019 17:00:00 - 17.06.2019 17:00:00 (CEST)St-Girons, France (7627): Direction du vent: 11.06.2019 17:00:00 - 17.06.2019 17:00:00 (CEST)St-Girons, France (7627): reduced air pressure: 11.06.2019 17:00:00 - 17.06.2019 17:00:00 (CEST)St-Girons, France (7627): visibility: 11.06.2019 17:00:00 - 17.06.2019 17:00:00 (CEST)St-Girons, France (7627): Ensoleillement: 11.06.2019 17:00:00 - 17.06.2019 17:00:00 (CEST)St-Girons, France (7627): Quantités de précipitations: 11.06.2019 17:00:00 - 17.06.2019 17:00:00 (CEST)
Date & Time tt [°C] td [°C] tt 5cm [°C] tt -20cm [°C] tt -100cm [°C] ff [km/h] ff [knt] fx [km/h] fx [knt] dd ppp [hPa] vv [km] sd [min] rr [mm]
17.06.2019 17:00:00 28,2 11,3 38,3 17,1 15,6 8 4 19 10 E 1013,2 20 60 0,0
17.06.2019 16:00:00 27,9 12,7 40,5 17,1 15,6 7 4 18 10 N 1013,6 20 60 0,0
17.06.2019 15:00:00 27,8 14,1 39,3 17,0 15,5 6 4 24 13 N 1014,2 20 60 0,0
17.06.2019 14:00:00 26,8 14,5 33,9 16,9 15,6 5 3 14 7 NNW 1014,8 20 60 0,0
17.06.2019 13:00:00 26,1 13,9 31,3 16,9 15,6 5 3 13 7 E 1015,5 19 60 0,0
17.06.2019 12:00:00 24,9 13,1 27,4 16,9 15,5 5 3 13 7 NNE 1015,9 4,2 60 0,0
17.06.2019 11:00:00 23,5 12,5 22,4 17,0 15,6 5 3 12 6 E 1016,3 17 60 0,0
17.06.2019 10:00:00 21,4 11,7 18,2 17,0 15,6 5 3 10 6 SE 1017,1 20 60 0,0
17.06.2019 09:00:00 18,3 12,5 14,3 17,1 15,6 6 4 16 9 SE 1017,9 20 60 0,0
17.06.2019 08:00:00 15,0 11,6 10,5 17,1 15,5 12 7 22 12 SSE 1018,5 20 54 0,0
17.06.2019 07:00:00 12,9 10,8 7,4 17,2 15,5 11 6 19 11 SE 1018,6 19 0 0,0
17.06.2019 06:00:00 10,3 9,4 7,4 17,2 15,5 3 2 9 5 SW 1018,9 9 0 0,0
17.06.2019 05:00:00 11,7 10,6 8,5 17,3 15,6 5 3 9 5 S 1018,6 18 0 0,0
17.06.2019 04:00:00 12,6 10,7 10,3 17,3 15,5 2 1 15 8 SW 1018,7 20 0 0,0
17.06.2019 03:00:00 14,0 11,2 11,2 17,3 15,5 5 3 24 13 SSW 1018,7 20 0 0,0
17.06.2019 02:00:00 15,3 12,1 11,9 17,3 15,5 18 10 24 13 SSE 1018,5 20 0 0,0
17.06.2019 01:00:00 15,1 12,4 9,8 17,3 15,5 9 5 18 10 SE 1019,2 20 0 0,0
17.06.2019 00:00:00 12,4 10,6 9,9 17,3 15,6 4 2 8 5 WSW 1020,1 20 0 0,0
16.06.2019 23:00:00 14,5 11,6 10,8 17,2 15,5 4 2 9 5 SSE 1019,7 19 0 0,0
16.06.2019 22:00:00 16,0 11,8 12,6 17,2 15,5 5 3 7 4 S 1019,2 20 12 0,0
16.06.2019 21:00:00 19,9 12,9 17,3 17,1 15,5 3 2 10 5 W 1018,3 20 47 0,0
16.06.2019 20:00:00 23,4 10,8 22,2 17,0 15,5 5 3 13 7 N 1017,7 20 53 0,0
16.06.2019 19:00:00 24,1 11,8 26,4 16,8 15,5 5 3 16 9 NE 1017,5 20 60 0,0
16.06.2019 18:00:00 23,9 12,5 31,9 16,7 15,5 8 4 17 9 NNE 1017,6 20 60 0,0
16.06.2019 17:00:00 23,8 12,4 36,2 16,6 15,5 4 2 17 9 ENE 1018,0 20 60 0,0
16.06.2019 16:00:00 23,7 14,1 37,4 16,5 15,5 6 3 16 9 NNE 1018,5 20 60 0,0
16.06.2019 15:00:00 22,5 12,7 37,6 16,4 15,5 7 4 18 10 NNE 1019,0 18 60 0,0
16.06.2019 14:00:00 21,7 12,8 33,0 16,4 15,5 8 4 16 9 NNE 1019,7 20 58 0,0
16.06.2019 13:00:00 21,8 11,8 30,3 16,4 15,5 4 2 21 11 NE 1020,4 20 60 0,0
16.06.2019 12:00:00 20,5 11,4 25,1 16,4 15,5 7 4 14 8 E 1021,0 20 60 0,0
16.06.2019 11:00:00 19,3 11,8 19,5 16,5 15,5 5 3 18 10 ESE 1021,4 20 60 0,0
16.06.2019 10:00:00 17,3 11,1 15,2 16,5 15,5 5 3 16 9 ESE 1022,1 20 60 0,0
16.06.2019 09:00:00 14,8 10,0 11,1 16,6 15,5 7 4 18 10 SE 1022,8 20 60 0,0
16.06.2019 08:00:00 11,9 9,6 7,5 16,6 15,5 0 0 17 9 N 1023,3 20 53 0,0
16.06.2019 07:00:00 9,6 8,4 7,2 16,7 15,5 5 3 16 9 SSE 1023,6 20 0 0,0
16.06.2019 06:00:00 9,3 7,7 5,4 16,8 15,5 8 5 18 10 SE 1023,3 20 0 0,0
16.06.2019 05:00:00 7,9 7,0 5,5 16,8 15,5 3 1 10 5 SW 1023,7 2,2 0 0,0
16.06.2019 04:00:00 9,2 8,6 5,5 16,8 15,5 4 2 8 5 SSE 1023,8 11 0 0,0
16.06.2019 03:00:00 9,8 9,0 5,9 16,8 15,5 4 2 8 5 S 1023,9 20 0 0,0
16.06.2019 02:00:00 9,7 8,5 7,3 16,9 15,5 3 2 14 7 W 1024,1 16 0 0,0
16.06.2019 01:00:00 12,6 10,3 10,6 16,9 15,5 11 6 18 10 SSE 1023,8 20 0 0,0
16.06.2019 00:00:00 14,0 10,4 13,3 16,9 15,5 6 3 19 10 S 1023,7 20 0 0,0
15.06.2019 23:00:00 13,9 10,3 13,5 16,9 15,5 8 5 14 8 SSE 1023,7 20 0 0,0
15.06.2019 22:00:00 13,8 11,8 13,7 16,9 15,5 2 1 13 7 SSW 1023,3 20 0 0,0
15.06.2019 21:00:00 14,5 11,5 15,1 16,9 15,5 6 3 8 5 SSE 1023,0 20 0 0,0
15.06.2019 20:00:00 15,1 11,9 16,3 16,9 15,5 3 2 8 4 SSW 1022,7 20 0 0,0
15.06.2019 19:00:00 15,7 10,9 16,9 16,9 15,5 4 2 10 5 NW 1022,4 20 0 0,0
15.06.2019 18:00:00 15,0 11,8 16,3 16,9 15,5 2 1 8 4 ESE 1022,2 20 0 0,0
15.06.2019 17:00:00 14,5 11,3 16,4 16,8 15,5 5 3 13 7 N 1022,3 19 0 0,0
15.06.2019 16:00:00 15,1 11,3 19,3 16,8 15,5 9 5 19 11 WNW 1021,7 20 0 0,0
15.06.2019 15:00:00 15,1 10,9 20,6 16,8 15,5 9 5 21 11 NNW 1021,4 20 0 0,0
15.06.2019 14:00:00 15,3 10,9 19,0 16,9 15,5 9 5 22 12 NW 1021,3 20 0 0,0
15.06.2019 13:00:00 13,6 11,3 17,1 16,9 15,5 6 3 17 9 N 1021,5 19 0 0,0
15.06.2019 12:00:00 12,5 10,7 16,1 16,9 15,5 10 5 28 15 NNW 1021,4 20 0 0,0
15.06.2019 11:00:00 12,6 11,0 14,5 16,9 15,5 14 7 25 14 NW 1020,8 19 0 0,0
15.06.2019 10:00:00 11,5 10,6 14,1 16,9 15,5 16 9 34 19 WNW 1020,6 9 0 0,0
15.06.2019 09:00:00 12,6 12,0 14,2 16,9 15,5 12 6 21 11 NW 1019,2 8 0 0,0
15.06.2019 08:00:00 12,6 11,8 13,8 17,0 15,5 12 6 23 12 NW 1018,3 13 0 1,0
15.06.2019 07:00:00 13,5 12,9 14,1 17,0 15,5 2 1 5 3 WNW 1017,8 1,7 0 0,2
15.06.2019 06:00:00 13,5 12,9 14,0 17,0 15,5 3 2 4 2 WSW 1017,5 3,6 0 0,0
15.06.2019 05:00:00 13,4 12,6 13,9 17,0 15,5 0 0 6 4 N 1017,3 6 0 0,2
15.06.2019 04:00:00 13,5 12,7 14,0 17,0 15,5 2 1 6 3 E 1017,3 3,6 0 0,2
15.06.2019 03:00:00 13,5 12,7 14,1 17,0 15,5 0 0 4 2 N 1017,6 2,4 0 0,2
15.06.2019 02:00:00 13,5 12,7 14,1 17,1 15,5 0 0 6 3 N 1016,7 4,9 0 0,0
15.06.2019 01:00:00 13,4 12,5 14,4 17,1 15,5 3 1 12 7 WNW 1016,2 6 0 0,4
15.06.2019 00:00:00 13,7 12,9 14,4 17,1 15,5 3 2 9 5 NNW 1016,1 3,0 0 0,0
14.06.2019 23:00:00 13,8 12,9 14,7 17,1 15,5 6 3 19 10 NNW 1016,1 4,8 0 0,0
14.06.2019 22:00:00 14,7 12,9 15,5 17,1 15,5 10 5 16 9 NW 1014,8 20 0 0,0
14.06.2019 21:00:00 15,5 13,5 16,3 17,1 15,5 11 6 20 11 NNW 1013,5 20 9 0,0
14.06.2019 20:00:00 17,3 14,4 18,3 17,0 15,5 13 7 19 10 WNW 1012,4 20 42 0,0
14.06.2019 19:00:00 18,8 14,5 21,2 17,0 15,5 6 3 14 7 NW 1011,5 20 60 0,0
14.06.2019 18:00:00 16,1 14,1 15,3 16,9 15,4 6 3 18 10 E 1012,2 19 21 2,0
14.06.2019 17:00:00 14,4 13,1 16,1 16,9 15,5 8 4 40 22 NNW 1013,8 14 0 2,0
14.06.2019 16:00:00 16,0 13,3 17,0 16,9 15,5 16 8 25 14 W 1012,9 20 0 0,0
14.06.2019 15:00:00 18,1 13,0 22,0 16,9 15,5 11 6 17 9 NNW 1010,7 20 15 0,0
14.06.2019 14:00:00 18,5 13,1 20,1 16,9 15,5 3 1 10 5 W 1010,8 20 0 0,0
14.06.2019 13:00:00 18,2 11,7 23,2 16,9 15,5 6 3 9 5 NW 1011,2 20 27 0,0
14.06.2019 12:00:00 17,6 12,5 19,2 16,9 15,5 3 2 10 5 E 1012,3 20 6 0,0
14.06.2019 11:00:00 15,2 11,4 15,9 16,9 15,5 4 2 11 6 ESE 1012,7 20 0 0,0
14.06.2019 10:00:00 14,2 11,5 15,4 17,0 15,5 4 2 10 5 E 1013,7 20 0 0,0
14.06.2019 09:00:00 13,6 12,2 14,4 17,0 15,5 4 2 6 4 E 1013,9 20 0 0,0
14.06.2019 08:00:00 12,8 11,9 13,2 17,0 15,5 4 2 9 5 ESE 1013,8 17 0 0,0
14.06.2019 07:00:00 12,4 11,5 12,7 17,1 15,5 0 0 6 4 N 1014,0 15 0 0,0
14.06.2019 06:00:00 12,2 11,3 13,3 17,1 15,5 6 3 14 8 W 1014,6 14 0 0,4
14.06.2019 05:00:00 12,8 11,5 13,3 17,1 15,5 11 6 21 11 NW 1014,4 6 0 0,0
14.06.2019 04:00:00 13,3 11,0 12,8 17,1 15,5 9 5 29 16 NNW 1014,1 20 0 0,0
14.06.2019 03:00:00 13,4 10,7 12,1 17,1 15,5 21 11 32 17 NW 1013,8 20 0 0,0
14.06.2019 02:00:00 13,7 11,0 12,0 17,2 15,5 9 5 24 13 N 1013,3 20 0 0,0
14.06.2019 01:00:00 14,9 10,9 10,4 17,2 15,5 16 9 28 15 NNW 1012,2 20 0 0,0
14.06.2019 00:00:00 14,2 9,8 10,6 17,1 15,5 9 5 23 12 NNW 1011,6 20 0 0,0
13.06.2019 23:00:00 16,9 9,3 13,2 17,1 15,5 11 6 17 9 SSE 1009,9 20 0 0,0
13.06.2019 22:00:00 18,3 9,6 14,1 17,0 15,5 7 4 14 8 SE 1009,2 20 0 0,0
13.06.2019 21:00:00 20,8 9,4 16,4 16,9 15,5 5 3 14 8 ESE 1008,7 20 24 0,0
13.06.2019 20:00:00 22,4 10,2 20,7 16,7 15,5 4 2 19 10 SE 1007,9 20 30 0,0
13.06.2019 19:00:00 24,3 11,3 26,1 16,5 15,5 8 4 21 11 ENE 1007,9 20 45 0,0
13.06.2019 18:00:00 25,3 11,5 31,5 16,4 15,5 11 6 29 16 E 1007,9 20 58 0,0
13.06.2019 17:00:00 25,2 13,4 33,1 16,3 15,5 14 8 28 15 WNW 1007,8 20 45 0,0
13.06.2019 16:00:00 25,2 15,5 40,5 16,2 15,5 17 9 28 15 W 1008,3 20 60 0,0
13.06.2019 15:00:00 23,8 15,6 41,5 16,0 15,5 16 8 24 13 W 1009,0 20 60 0,0
13.06.2019 14:00:00 23,1 15,2 37,8 16,0 15,5 13 7 23 13 WNW 1009,5 17 60 0,0
13.06.2019 13:00:00 21,5 14,2 32,9 16,0 15,5 14 8 26 14 NW 1010,1 20 60 0,0
13.06.2019 12:00:00 19,4 12,2 28,2 16,0 15,5 14 7 27 14 NNW 1010,6 20 60 0,0
13.06.2019 11:00:00 18,7 11,3 18,3 16,1 15,5 14 8 26 14 WNW 1010,9 20 46 0,0
13.06.2019 10:00:00 16,9 10,7 14,9 16,1 15,5 9 5 16 9 WNW 1010,9 20 60 0,0
13.06.2019 09:00:00 15,6 8,8 9,4 16,2 15,5 3 2 8 5 NE 1011,2 20 60 0,0
13.06.2019 08:00:00 11,4 8,3 4,4 16,3 15,5 0 0 9 5 N 1012,2 20 53 0,0
13.06.2019 07:00:00 6,8 5,6 4,3 16,4 15,5 0 0 21 11 N 1013,3 20 0 0,0
13.06.2019 06:00:00 8,3 6,1 2,8 16,4 15,5 15 8 26 14 SSE 1013,0 20 0 0,0
13.06.2019 05:00:00 6,3 5,7 3,0 16,5 15,5 2 1 10 5 SW 1014,1 20 0 0,0
13.06.2019 04:00:00 6,9 5,2 3,8 16,5 15,5 3 2 18 10 SSE 1014,4 20 0 0,0
13.06.2019 03:00:00 7,4 6,7 4,0 16,6 15,5 3 2 16 9 ESE 1015,0 20 0 0,0
13.06.2019 02:00:00 7,6 6,8 3,8 16,6 15,5 8 4 14 8 SSE 1015,6 20 0 0,0
13.06.2019 01:00:00 7,2 6,0 4,7 16,7 15,5 0 0 4 2 N 1016,5 20 0 0,0
13.06.2019 00:00:00 8,1 6,6 5,5 16,6 15,5 3 1 5 3 SSW 1016,5 20 0 0,0
12.06.2019 23:00:00 10,5 7,9 6,8 16,6 15,5 0 0 12 6 N 1016,0 20 0 0,0
12.06.2019 22:00:00 11,6 8,1 8,7 16,6 15,5 6 4 9 5 SSE 1015,5 20 0 0,0
12.06.2019 21:00:00 15,2 10,6 14,6 16,5 15,5 3 2 5 3 SW 1014,9 20 0 0,0
12.06.2019 20:00:00 16,8 6,9 18,0 16,4 15,6 4 2 12 6 NNE 1014,5 20 0 0,0
12.06.2019 19:00:00 17,5 7,2 19,1 16,3 15,6 5 3 12 7 NE 1013,9 20 4 0,0
12.06.2019 18:00:00 17,6 7,0 20,8 16,2 15,5 5 3 16 9 NNE 1014,0 20 0 0,0
12.06.2019 17:00:00 18,6 7,7 27,1 16,1 15,5 9 5 16 9 N 1013,7 20 26 0,0
12.06.2019 16:00:00 19,5 7,6 27,9 16,0 15,5 9 5 20 11 NW 1013,5 20 55 0,0
12.06.2019 15:00:00 17,5 5,7 26,1 15,9 15,6 6 4 16 8 NNE 1013,9 20 36 0,0
12.06.2019 14:00:00 17,5 5,7 31,4 15,9 15,6 6 3 23 13 NNE 1014,1 20 57 0,0
12.06.2019 13:00:00 17,1 5,4 26,7 15,9 15,6 6 3 16 9 ENE 1014,3 20 60 0,0
12.06.2019 12:00:00 16,3 5,3 22,3 16,0 15,6 5 3 14 8 E 1014,7 20 60 0,0
12.06.2019 11:00:00 15,1 5,3 16,1 16,0 15,6 4 2 13 7 NE 1014,8 20 60 0,0
12.06.2019 10:00:00 13,4 6,7 12,3 16,1 15,6 8 5 15 8 SSE 1015,2 20 60 0,0
12.06.2019 09:00:00 11,3 6,2 7,8 16,2 15,6 7 4 17 9 ESE 1015,4 20 60 0,0
12.06.2019 08:00:00 8,1 5,9 3,9 16,2 15,6 4 2 16 8 S 1015,7 20 53 0,0
12.06.2019 07:00:00 5,3 3,9 3,1 16,3 15,6 4 2 17 9 SSE 1016,1 20 0 0,0
12.06.2019 06:00:00 5,2 3,7 3,4 16,4 15,5 3 2 20 11 SE 1015,7 20 0 0,0
12.06.2019 05:00:00 5,8 4,1 2,5 16,5 15,6 11 6 20 11 SE 1015,5 20 0 0,0
12.06.2019 04:00:00 4,5 3,5 2,0 16,5 15,6 4 2 17 9 S 1016,0 20 0 0,0
12.06.2019 03:00:00 5,5 4,8 1,8 16,6 15,6 10 5 16 9 SSE 1016,1 20 0 0,0
12.06.2019 02:00:00 4,9 4,2 2,3 16,6 15,6 2 1 9 5 SW 1016,6 17 0 0,0
12.06.2019 01:00:00 5,9 4,5 4,0 16,7 15,6 5 3 11 6 SSE 1016,9 20 0 0,0
12.06.2019 00:00:00 6,9 5,8 4,0 16,7 15,6 4 2 10 5 SSE 1017,0 20 0 0,0
11.06.2019 23:00:00 7,8 6,3 6,1 16,7 15,6 3 2 6 3 S 1017,4 20 0 0,0
11.06.2019 22:00:00 9,0 7,1 8,3 16,7 15,6 5 3 21 12 W 1017,1 20 0 0,0
11.06.2019 21:00:00 10,9 5,6 11,4 16,7 15,6 15 8 25 14 NW 1016,5 20 1 0,0
11.06.2019 20:00:00 12,7 6,9 13,8 16,7 15,6 8 4 25 13 WNW 1015,6 20 23 0,0
11.06.2019 19:00:00 13,7 6,3 12,7 16,7 15,6 7 4 16 9 SSW 1014,7 20 13 0,0
11.06.2019 18:00:00 11,6 7,5 12,8 16,7 15,5 5 3 21 12 SSW 1015,3 20 0 0,0
11.06.2019 17:00:00 12,8 8,5 14,0 16,7 15,6 11 6 26 14 W 1014,7 20 0 1,0

tt = Température de l'air
td = dewpoint
tt 5cm = Température de l'air 5cm
tt -20cm = Température de l'air -20cm
tt -100cm = Température de l'air -100cm
ff = Vitesse du vent
fx = gusts
dd = Direction du vent
ppp = reduced air pressure
vv = visibility
sd = Ensoleillement
rr = Quantités de précipitations

stations d'obs. à proximité